N93RG EBKT-ELLX

Flight info

Callsign N93RG
Flight time N/A
Altitude 19000
Route MAK L607 GILOM M624 REMBA
Aircraft SF50/L-BDGRSWY/LB2U2

Departure

Time 2026-04-21 19:02
Airport Flanders International Airport Kortrijk-Wevelgem (EBKT)

Arrival

Time N/A
Airport Luxembourg-Findel International Airport (ELLX)
Time Latitude Longitude Altitude Speed Heading
2026-04-21 18:46 50.81970 3.21523 55 ft 0 kts 142°
2026-04-21 18:57 50.81969 3.21523 55 ft 1 kts 147°
2026-04-21 18:57 50.81949 3.21457 54 ft 13 kts 226°
2026-04-21 18:57 50.81899 3.21358 55 ft 15 kts 238°
2026-04-21 18:57 50.81854 3.21224 55 ft 17 kts 242°
2026-04-21 18:58 50.81798 3.21057 51 ft 17 kts 243°
2026-04-21 18:58 50.81754 3.20901 56 ft 16 kts 246°
2026-04-21 18:58 50.81706 3.20728 53 ft 17 kts 247°
2026-04-21 18:58 50.81662 3.20564 53 ft 15 kts 247°
2026-04-21 18:59 50.81661 3.20496 55 ft 5 kts 339°
2026-04-21 18:59 50.81669 3.20492 55 ft 0 kts 338°
2026-04-21 19:00 50.81675 3.20489 55 ft 5 kts 342°
2026-04-21 19:00 50.81718 3.20453 55 ft 9 kts 271°
2026-04-21 19:00 50.81675 3.20307 55 ft 21 kts 242°
2026-04-21 19:00 50.81597 3.20071 57 ft 28 kts 242°
2026-04-21 19:01 50.81527 3.19862 58 ft 19 kts 246°
2026-04-21 19:01 50.81512 3.19816 58 ft 13 kts 63°
2026-04-21 19:01 50.81551 3.19934 59 ft 37 kts 62°
2026-04-21 19:01 50.81775 3.20595 89 ft 92 kts 60°
2026-04-21 19:02 50.82090 3.21587 393 ft 107 kts 61°
2026-04-21 19:02 50.82414 3.22650 876 ft 105 kts 64°
2026-04-21 19:02 50.82732 3.23595 1495 ft 88 kts 59°
2026-04-21 19:02 50.83010 3.24359 2047 ft 77 kts 62°
2026-04-21 19:03 50.83262 3.25061 2522 ft 71 kts 63°
2026-04-21 19:03 50.83509 3.25784 2819 ft 84 kts 63°
2026-04-21 19:03 50.83818 3.26670 3048 ft 99 kts 64°
2026-04-21 19:03 50.84170 3.27690 3010 ft 110 kts 63°
2026-04-21 19:04 50.84529 3.28745 3010 ft 107 kts 63°
2026-04-21 19:04 50.84876 3.29763 3004 ft 104 kts 63°
2026-04-21 19:04 50.85215 3.30761 3006 ft 103 kts 63°
2026-04-21 19:04 50.85553 3.31757 3002 ft 103 kts 63°
2026-04-21 19:05 50.85891 3.32762 3004 ft 103 kts 63°
2026-04-21 19:05 50.86250 3.33823 3124 ft 118 kts 63°
2026-04-21 19:05 50.86656 3.35031 3564 ft 133 kts 63°
2026-04-21 19:05 50.87099 3.36340 4174 ft 136 kts 63°
2026-04-21 19:06 50.87544 3.37669 4777 ft 138 kts 64°
2026-04-21 19:06 50.88005 3.39035 5372 ft 142 kts 64°
2026-04-21 19:06 50.88473 3.40430 5958 ft 145 kts 64°
2026-04-21 19:06 50.88950 3.41849 6543 ft 147 kts 64°
2026-04-21 19:07 50.89436 3.43300 6998 ft 153 kts 63°
2026-04-21 19:07 50.89946 3.44818 7016 ft 157 kts 64°
2026-04-21 19:07 50.90506 3.46288 7013 ft 155 kts 52°
2026-04-21 19:07 50.91330 3.47341 7010 ft 156 kts 33°
2026-04-21 19:08 50.92356 3.47922 7008 ft 158 kts 17°
2026-04-21 19:08 50.93424 3.48351 7012 ft 158 kts 20°
2026-04-21 19:08 50.94446 3.48940 7008 ft 155 kts 34°
2026-04-21 19:08 50.95233 3.50066 7001 ft 152 kts 54°
2026-04-21 19:09 50.95715 3.51542 7007 ft 151 kts 74°
2026-04-21 19:09 50.95835 3.53190 7008 ft 151 kts 93°
2026-04-21 19:09 50.95605 3.54822 7008 ft 152 kts 104°
2026-04-21 19:09 50.95345 3.56465 7092 ft 159 kts 102°
2026-04-21 19:10 50.95091 3.58075 7794 ft 149 kts 102°
2026-04-21 19:10 50.94840 3.59653 8340 ft 150 kts 102°
2026-04-21 19:10 50.94581 3.61260 8905 ft 150 kts 102°
2026-04-21 19:10 50.94326 3.62866 9470 ft 150 kts 101°
2026-04-21 19:11 50.94074 3.64477 10029 ft 151 kts 101°
2026-04-21 19:11 50.93807 3.66158 10546 ft 152 kts 101°
2026-04-21 19:11 50.93560 3.67720 10985 ft 153 kts 101°
2026-04-21 19:11 50.93297 3.69369 11460 ft 155 kts 101°
2026-04-21 19:12 50.93123 3.70471 11771 ft 156 kts 101°
2026-04-21 19:12 50.92767 3.72701 12383 ft 159 kts 101°
2026-04-21 19:12 50.92496 3.74403 12855 ft 160 kts 101°
2026-04-21 19:12 50.92222 3.76122 13316 ft 162 kts 100°
2026-04-21 19:13 50.91945 3.77859 13779 ft 163 kts 101°
2026-04-21 19:13 50.91665 3.79615 14208 ft 165 kts 100°
2026-04-21 19:13 50.91438 3.81025 14525 ft 166 kts 100°
2026-04-21 19:13 50.91153 3.82816 14924 ft 168 kts 100°
2026-04-21 19:14 50.90866 3.84617 15301 ft 169 kts 100°
2026-04-21 19:14 50.90575 3.86439 15700 ft 171 kts 100°
2026-04-21 19:14 50.90285 3.88246 16093 ft 172 kts 100°
2026-04-21 19:14 50.89989 3.90094 16489 ft 174 kts 100°
2026-04-21 19:15 50.89691 3.91957 16893 ft 175 kts 100°
2026-04-21 19:15 50.89389 3.93835 17298 ft 177 kts 100°
2026-04-21 19:15 50.89085 3.95729 17706 ft 178 kts 100°
2026-04-21 19:15 50.88777 3.97639 18108 ft 180 kts 100°
2026-04-21 19:16 50.88475 3.99522 18510 ft 181 kts 100°
2026-04-21 19:16 50.88152 4.01528 18617 ft 198 kts 100°
2026-04-21 19:16 50.87802 4.03681 18939 ft 203 kts 101°
2026-04-21 19:16 50.87714 4.04205 19053 ft 203 kts 101°
2026-04-21 19:17 50.87019 4.08328 19268 ft 226 kts 101°
2026-04-21 19:17 50.86600 4.10830 19275 ft 243 kts 102°
2026-04-21 19:17 50.86151 4.13489 19275 ft 256 kts 102°
2026-04-21 19:18 50.85682 4.16270 19272 ft 266 kts 102°
2026-04-21 19:18 50.85200 4.19126 19276 ft 272 kts 102°
2026-04-21 19:18 50.84706 4.22050 19273 ft 277 kts 102°
2026-04-21 19:18 50.84204 4.25015 19269 ft 281 kts 102°
2026-04-21 19:19 50.83703 4.27971 19276 ft 283 kts 102°
2026-04-21 19:19 50.83190 4.30993 19273 ft 285 kts 102°
2026-04-21 19:19 50.82681 4.33988 19275 ft 280 kts 102°
2026-04-21 19:19 50.82179 4.36940 19275 ft 277 kts 102°
2026-04-21 19:20 50.81678 4.39877 19274 ft 276 kts 102°
2026-04-21 19:20 50.81179 4.42810 19277 ft 276 kts 102°
2026-04-21 19:20 50.80556 4.45645 19343 ft 276 kts 122°
2026-04-21 19:20 50.79351 4.48002 19336 ft 277 kts 117°
2026-04-21 19:21 50.78806 4.50857 19272 ft 276 kts 92°
2026-04-21 19:21 50.78775 4.53890 19277 ft 277 kts 88°
2026-04-21 19:21 50.78703 4.56958 19271 ft 281 kts 92°
2026-04-21 19:21 50.78346 4.60010 19270 ft 286 kts 102°
2026-04-21 19:22 50.77733 4.63013 19272 ft 288 kts 105°
2026-04-21 19:22 50.77141 4.66038 19273 ft 289 kts 102°
2026-04-21 19:22 50.76636 4.69112 19274 ft 290 kts 101°
2026-04-21 19:22 50.76127 4.72180 19274 ft 285 kts 102°
2026-04-21 19:23 50.75562 4.75146 19266 ft 280 kts 107°
2026-04-21 19:23 50.74661 4.77861 19259 ft 281 kts 119°
2026-04-21 19:23 50.73418 4.80219 19249 ft 284 kts 131°
2026-04-21 19:23 50.72000 4.82384 19253 ft 285 kts 131°
2026-04-21 19:24 50.70595 4.84586 19255 ft 285 kts 131°
2026-04-21 19:24 50.69188 4.86793 19254 ft 285 kts 131°
2026-04-21 19:24 50.67819 4.88922 19254 ft 285 kts 131°
2026-04-21 19:24 50.66404 4.91112 19251 ft 285 kts 131°
2026-04-21 19:25 50.64880 4.93137 19247 ft 287 kts 137°
2026-04-21 19:25 50.63317 4.95106 19249 ft 288 kts 137°
2026-04-21 19:25 50.61783 4.97062 19247 ft 287 kts 136°
2026-04-21 19:25 50.60303 4.98956 19251 ft 287 kts 137°
2026-04-21 19:26 50.58748 5.00938 19249 ft 288 kts 137°
2026-04-21 19:26 50.57193 5.02916 19249 ft 288 kts 137°
2026-04-21 19:26 50.55682 5.04961 19241 ft 284 kts 128°
2026-04-21 19:26 50.54514 5.07435 19238 ft 283 kts 126°
2026-04-21 19:27 50.53118 5.09634 19240 ft 286 kts 134°
2026-04-21 19:27 50.51618 5.11714 19241 ft 287 kts 134°
2026-04-21 19:27 50.50176 5.13869 19239 ft 285 kts 130°
2026-04-21 19:27 50.48832 5.16099 19239 ft 285 kts 129°
2026-04-21 19:28 50.47458 5.18344 19241 ft 286 kts 130°
2026-04-21 19:28 50.46038 5.20576 19241 ft 286 kts 131°
2026-04-21 19:28 50.44657 5.22776 19238 ft 286 kts 130°
2026-04-21 19:28 50.43355 5.24874 19243 ft 286 kts 130°
2026-04-21 19:29 50.41955 5.27094 19243 ft 286 kts 131°
2026-04-21 19:29 50.40550 5.29311 19243 ft 287 kts 131°
2026-04-21 19:29 50.39148 5.31531 19247 ft 287 kts 130°
2026-04-21 19:29 50.37763 5.33723 19247 ft 287 kts 131°
2026-04-21 19:30 50.36359 5.35940 19244 ft 287 kts 131°
2026-04-21 19:30 50.34952 5.38162 19244 ft 287 kts 131°
2026-04-21 19:30 50.33543 5.40385 19246 ft 287 kts 131°
2026-04-21 19:30 50.32137 5.42601 19249 ft 287 kts 131°